• In Österreich
  • Länderverzeichnis
  • Für 7 Tage
  • Wassertemperatur
  • Satellitenkarten
  • Wetterkarte
  • News
  • Widgets
  • user-avatar
    Anmelden

    Stündliche Wetter Brisbane

    Heute, 18 Dezember, Montag

    Zeit Temperatur Niederschläge Wind Luftdruck Luftfeuchtigkeit
    00:00 +24°C° 0 mm 2 m/S 760 mmHg 82%
    01:00 +24°C° 0 mm 2 m/S 760 mmHg 81%
    02:00 +24°C° 0 mm 1 m/S 760 mmHg 82%
    03:00 +23°C° 0 mm 1 m/S 760 mmHg 83%
    04:00 +23°C° 0 mm 1 m/S 759 mmHg 84%
    05:00 +24°C° 0 mm 1 m/S 760 mmHg 77%
    06:00 +26°C° 0 mm 1 m/S 760 mmHg 70%
    07:00 +27°C° 0 mm 2 m/S 760 mmHg 64%
    08:00 +28°C° 0 mm 2 m/S 760 mmHg 57%
    09:00 +30°C° 0 mm 2 m/S 759 mmHg 50%
    10:00 +31°C° 0 mm 3 m/S 759 mmHg 44%
    11:00 +33°C° 0 mm 3 m/S 759 mmHg 43%
    12:00 +34°C° 0 mm 3 m/S 758 mmHg 42%
    13:00 +34°C° 0 mm 3 m/S 758 mmHg 40%
    14:00 +34°C° 0 mm 4 m/S 758 mmHg 42%
    15:00 +33°C° 0 mm 4 m/S 757 mmHg 45%
    16:00 +31°C° 0 mm 3 m/S 757 mmHg 49%
    17:00 +29°C° 0 mm 3 m/S 758 mmHg 55%
    18:00 +27°C° 0 mm 3 m/S 758 mmHg 62%
    19:00 +25°C° 0 mm 3 m/S 758 mmHg 68%
    20:00 +25°C° 0 mm 3 m/S 758 mmHg 72%
    21:00 +24°C° 0 mm 2 m/S 759 mmHg 76%
    22:00 +23°C° 0 mm 2 m/S 759 mmHg 81%
    23:00 +23°C° 0 mm 2 m/S 759 mmHg 83%

    Morgen, 19 Dezember, Dienstag

    Zeit Temperatur Niederschläge Wind Luftdruck Luftfeuchtigkeit
    00:00 +21°C° 0 mm 2 m/S 759 mmHg 86%
    01:00 +21°C° 0 mm 2 m/S 758 mmHg 88%
    02:00 +20°C° 0 mm 2 m/S 758 mmHg 89%
    03:00 +20°C° 0 mm 2 m/S 758 mmHg 90%
    04:00 +21°C° 0 mm 1 m/S 758 mmHg 91%
    05:00 +22°C° 0 mm 1 m/S 758 mmHg 85%
    06:00 +24°C° 0 mm 1 m/S 758 mmHg 79%
    07:00 +25°C° 0 mm 1 m/S 759 mmHg 73%
    08:00 +28°C° 0 mm 2 m/S 758 mmHg 62%
    09:00 +31°C° 0 mm 2 m/S 758 mmHg 51%
    10:00 +34°C° 0 mm 2 m/S 758 mmHg 41%
    11:00 +35°C° 0 mm 3 m/S 757 mmHg 39%
    12:00 +36°C° 0 mm 3 m/S 757 mmHg 38%
    13:00 +37°C° 0 mm 4 m/S 756 mmHg 37%
    14:00 +36°C° 0 mm 4 m/S 756 mmHg 40%
    15:00 +35°C° 0 mm 5 m/S 756 mmHg 44%
    16:00 +34°C° 0 mm 5 m/S 755 mmHg 47%
    17:00 +32°C° 0 mm 5 m/S 756 mmHg 56%
    18:00 +29°C° 0 mm 5 m/S 756 mmHg 64%
    19:00 +27°C° 0 mm 4 m/S 756 mmHg 72%
    20:00 +27°C° 0 mm 4 m/S 757 mmHg 76%
    21:00 +26°C° 0 mm 3 m/S 757 mmHg 80%
    22:00 +25°C° 0 mm 3 m/S 758 mmHg 84%
    23:00 +25°C° 0 mm 3 m/S 758 mmHg 85%

    übermorgen, 20 Dezember, Mittwoch

    Zeit Temperatur Niederschläge Wind Luftdruck Luftfeuchtigkeit
    00:00 +25°C° 0 mm 3 m/S 757 mmHg 87%
    01:00 +24°C° 0 mm 3 m/S 757 mmHg 88%
    02:00 +24°C° 0 mm 3 m/S 757 mmHg 89%
    03:00 +24°C° 0 mm 3 m/S 757 mmHg 90%
    04:00 +24°C° 0 mm 3 m/S 757 mmHg 91%
    05:00 +25°C° 0 mm 3 m/S 757 mmHg 84%
    06:00 +26°C° 0 mm 3 m/S 757 mmHg 78%
    07:00 +27°C° 0 mm 3 m/S 758 mmHg 72%
    08:00 +30°C° 0 mm 3 m/S 758 mmHg 61%
    09:00 +33°C° 0 mm 3 m/S 758 mmHg 50%
    10:00 +36°C° 0 mm 3 m/S 757 mmHg 38%
    11:00 +36°C° 0 mm 4 m/S 757 mmHg 37%
    12:00 +37°C° 0 mm 4 m/S 756 mmHg 36%
    13:00 +39°C° 0 mm 5 m/S 756 mmHg 35%
    14:00 +37°C° 0 mm 5 m/S 755 mmHg 38%
    15:00 +36°C° 0 mm 6 m/S 755 mmHg 41%
    16:00 +35°C° 0 mm 6 m/S 755 mmHg 44%
    17:00 +33°C° 0 mm 6 m/S 755 mmHg 52%
    18:00 +30°C° 0 mm 5 m/S 756 mmHg 59%
    19:00 +28°C° 0 mm 5 m/S 757 mmHg 66%
    20:00 +27°C° 0 mm 5 m/S 757 mmHg 71%
    21:00 +27°C° 0 mm 4 m/S 758 mmHg 75%
    22:00 +26°C° 0 mm 4 m/S 758 mmHg 80%
    23:00 +26°C° 0 mm 4 m/S 758 mmHg 82%

    21 Dezember, Donnerstag

    Zeit Temperatur Niederschläge Wind Luftdruck Luftfeuchtigkeit
    00:00 +25°C° 0 mm 4 m/S 758 mmHg 84%
    01:00 +25°C° 0 mm 3 m/S 757 mmHg 86%
    02:00 +25°C° 0 mm 3 m/S 757 mmHg 88%
    03:00 +24°C° 0 mm 3 m/S 757 mmHg 89%
    04:00 +24°C° 0 mm 2 m/S 757 mmHg 91%
    05:00 +25°C° 0 mm 2 m/S 758 mmHg 84%
    06:00 +26°C° 0 mm 2 m/S 758 mmHg 78%
    07:00 +27°C° 0 mm 3 m/S 759 mmHg 71%
    08:00 +30°C° 0 mm 3 m/S 759 mmHg 61%
    09:00 +33°C° 0 mm 3 m/S 759 mmHg 51%
    10:00 +35°C° 0 mm 3 m/S 759 mmHg 40%
    11:00 +36°C° 0 mm 3 m/S 758 mmHg 38%
    12:00 +37°C° 0 mm 4 m/S 758 mmHg 37%
    13:00 +38°C° 0 mm 4 m/S 757 mmHg 35%
    14:00 +37°C° 0 mm 5 m/S 757 mmHg 39%
    15:00 +36°C° 0 mm 5 m/S 756 mmHg 43%
    16:00 +35°C° 0 mm 6 m/S 756 mmHg 46%
    17:00 +33°C° 0 mm 5 m/S 757 mmHg 54%
    18:00 +30°C° 0 mm 5 m/S 757 mmHg 61%
    19:00 +28°C° 0 mm 4 m/S 758 mmHg 68%
    20:00 +27°C° 0 mm 3 m/S 758 mmHg 72%
    21:00 +27°C° 0 mm 3 m/S 759 mmHg 76%
    22:00 +26°C° 0 mm 2 m/S 759 mmHg 80%
    23:00 +25°C° 0 mm 2 m/S 759 mmHg 82%

    22 Dezember, Freitag

    Zeit Temperatur Niederschläge Wind Luftdruck Luftfeuchtigkeit
    00:00 +25°C° 0 mm 2 m/S 759 mmHg 85%
    01:00 +24°C° 0 mm 1 m/S 758 mmHg 88%
    02:00 +24°C° 0 mm 1 m/S 758 mmHg 88%
    03:00 +24°C° 0 mm 1 m/S 758 mmHg 88%
    04:00 +24°C° 0 mm 1 m/S 758 mmHg 89%
    05:00 +25°C° 0 mm 2 m/S 759 mmHg 84%
    06:00 +26°C° 0 mm 2 m/S 759 mmHg 79%
    07:00 +27°C° 0 mm 2 m/S 759 mmHg 74%
    08:00 +29°C° 0 mm 3 m/S 759 mmHg 66%
    09:00 +31°C° 0 mm 3 m/S 759 mmHg 58%
    10:00 +33°C° 0 mm 3 m/S 759 mmHg 50%
    11:00 +34°C° 0 mm 3 m/S 758 mmHg 48%
    12:00 +35°C° 0 mm 4 m/S 758 mmHg 46%
    13:00 +35°C° 0 mm 4 m/S 757 mmHg 44%
    14:00 +34°C° 0,1 mm 4 m/S 757 mmHg 46%
    15:00 +34°C° 0,1 mm 4 m/S 757 mmHg 49%
    16:00 +33°C° 0,1 mm 4 m/S 757 mmHg 51%
    17:00 +30°C° 0,5 mm 4 m/S 757 mmHg 61%
    18:00 +28°C° 0,5 mm 3 m/S 757 mmHg 70%
    19:00 +26°C° 0,5 mm 3 m/S 758 mmHg 79%
    20:00 +26°C° 0,2 mm 3 m/S 758 mmHg 81%
    21:00 +25°C° 0,2 mm 2 m/S 759 mmHg 82%
    22:00 +25°C° 0,2 mm 2 m/S 759 mmHg 83%
    23:00 +25°C° 0,1 mm 2 m/S 759 mmHg 83%

    23 Dezember, Samstag

    Zeit Temperatur Niederschläge Wind Luftdruck Luftfeuchtigkeit
    00:00 +24°C° 0,1 mm 2 m/S 758 mmHg 84%
    01:00 +24°C° 0,1 mm 1 m/S 758 mmHg 84%
    02:00 +24°C° 0,1 mm 1 m/S 758 mmHg 85%
    03:00 +24°C° 0,1 mm 1 m/S 758 mmHg 86%
    04:00 +24°C° 0,1 mm 1 m/S 758 mmHg 87%
    05:00 +24°C° 0 mm 1 m/S 759 mmHg 85%
    06:00 +25°C° 0 mm 1 m/S 759 mmHg 82%
    07:00 +26°C° 0 mm 1 m/S 759 mmHg 79%
    08:00 +28°C° 0 mm 1 m/S 759 mmHg 68%
    09:00 +30°C° 0 mm 1 m/S 759 mmHg 57%
    10:00 +32°C° 0 mm 1 m/S 759 mmHg 45%
    11:00 +34°C° 0 mm 2 m/S 758 mmHg 42%
    12:00 +35°C° 0 mm 2 m/S 757 mmHg 40%
    13:00 +36°C° 0 mm 3 m/S 757 mmHg 37%
    14:00 +35°C° 0 mm 3 m/S 756 mmHg 39%
    15:00 +35°C° 0 mm 4 m/S 756 mmHg 41%
    16:00 +34°C° 0 mm 4 m/S 756 mmHg 43%
    17:00 +32°C° 0 mm 4 m/S 756 mmHg 50%
    18:00 +29°C° 0 mm 4 m/S 757 mmHg 58%
    19:00 +27°C° 0 mm 4 m/S 757 mmHg 65%
    20:00 +26°C° 0 mm 3 m/S 757 mmHg 70%
    21:00 +25°C° 0 mm 3 m/S 758 mmHg 74%
    22:00 +25°C° 0 mm 2 m/S 758 mmHg 79%
    23:00 +24°C° 0 mm 2 m/S 758 mmHg 81%
    Mehr zeigen